Total_Precipitation_Accumulation
0.21 0.22 0.34 0.41 0.45 0.56 0.71 0.83 0.96 1.12 1.51 1.68 1.75 1.74 1.30 0.71 0.33 0.17 0.06 0.01 0.00 0.00 0.00 0.00 0.00 0.00 0.00 0.00 0.00 0.00 0.00 0.00 0.00 0.00 0.00 0.00 0.00 0.00 0.00 0.00 0.00 0.00 0.00
0.28 0.31 0.38 0.44 0.42 0.34 0.40 0.50 0.57 0.60 0.83 1.05 1.23 1.36 1.68 1.78 1.40 0.87 0.50 0.27 0.12 0.04 0.01 0.00 0.00 0.00 0.00 0.00 0.00 0.00 0.00 0.00 0.00 0.00 0.00 0.00 0.00 0.00 0.00 0.00 0.00 0.00 0.00
0.34 0.39 0.43 0.46 0.46 0.44 0.34 0.31 0.34 0.38 0.41 0.45 0.49 0.55 0.54 0.61 0.77 0.82 0.72 0.56 0.43 0.30 0.18 0.08 0.03 0.00 0.00 0.00 0.00 0.00 0.00 0.00 0.00 0.00 0.00 0.00 0.00 0.00 0.00 0.00 0.00 0.00 0.00
0.36 0.40 0.42 0.43 0.43 0.39 0.40 0.35 0.30 0.28 0.31 0.33 0.35 0.39 0.38 0.34 0.32 0.30 0.26 0.24 0.21 0.17 0.14 0.11 0.07 0.03 0.01 0.00 0.00 0.00 0.00 0.00 0.00 0.00 0.00 0.00 0.00 0.00 0.00 0.00 0.00 0.00 0.00
0.50 0.43 0.43 0.42 0.41 0.44 0.41 0.38 0.38 0.36 0.31 0.30 0.33 0.35 0.32 0.30 0.27 0.24 0.22 0.20 0.16 0.13 0.11 0.08 0.05 0.03 0.01 0.00 0.00 0.00 0.00 0.00 0.00 0.00 0.00 0.00 0.00 0.00 0.00 0.00 0.00 0.00 0.00
0.48 0.51 0.46 0.43 0.41 0.37 0.41 0.39 0.36 0.34 0.34 0.30 0.27 0.28 0.33 0.32 0.35 0.28 0.20 0.17 0.16 0.14 0.13 0.11 0.09 0.08 0.03 0.01 0.00 0.00 0.00 0.00 0.00 0.00 0.00 0.00 0.00 0.00 0.00 0.00 0.00 0.00 0.00
0.48 0.44 0.43 0.42 0.39 0.36 0.32 0.34 0.36 0.34 0.32 0.31 0.32 0.29 0.24 0.23 0.31 0.25 0.22 0.19 0.17 0.16 0.15 0.15 0.14 0.12 0.10 0.06 0.05 0.04 0.03 0.02 0.02 0.02 0.01 0.01 0.00 0.00 0.00 0.00 0.00 0.00 0.00
0.44 0.47 0.41 0.34 0.36 0.38 0.33 0.30 0.28 0.28 0.28 0.29 0.29 0.26 0.24 0.22 0.22 0.14 0.14 0.16 0.17 0.17 0.15 0.14 0.13 0.13 0.11 0.10 0.09 0.08 0.07 0.05 0.04 0.02 0.01 0.00 0.00 0.00 0.00 0.00 0.00 0.00 0.00
0.46 0.42 0.43 0.40 0.35 0.32 0.31 0.29 0.25 0.20 0.23 0.21 0.16 0.16 0.16 0.17 0.18 0.11 0.08 0.09 0.09 0.11 0.11 0.09 0.08 0.08 0.09 0.08 0.06 0.05 0.04 0.02 0.01 0.01 0.01 0.01 0.00 0.00 0.00 0.00 0.00 0.00 0.00
0.57 0.49 0.43 0.39 0.37 0.35 0.29 0.28 0.27 0.22 0.16 0.12 0.12 0.11 0.12 0.10 0.15 0.09 0.09 0.11 0.14 0.13 0.12 0.08 0.05 0.04 0.05 0.03 0.03 0.02 0.02 0.01 0.01 0.01 0.00 0.00 0.00 0.00 0.00 0.00 0.00 0.00 0.00
0.51 0.51 0.46 0.40 0.34 0.31 0.31 0.30 0.26 0.22 0.18 0.16 0.15 0.17 0.12 0.08 0.08 0.08 0.09 0.11 0.10 0.10 0.10 0.10 0.06 0.06 0.04 0.01 0.01 0.01 0.01 0.01 0.00 0.00 0.00 0.00 0.00 0.00 0.00 0.00 0.00 0.00 0.00
0.36 0.36 0.40 0.38 0.32 0.28 0.23 0.23 0.23 0.23 0.23 0.23 0.21 0.22 0.19 0.11 0.07 0.08 0.09 0.08 0.06 0.05 0.06 0.05 0.04 0.06 0.02 0.01 0.00 0.00 0.00 0.01 0.00 0.00 0.00 0.00 0.00 0.00 0.00 0.00 0.00 0.00 0.00
0.25 0.25 0.24 0.25 0.25 0.24 0.21 0.20 0.19 0.18 0.19 0.22 0.20 0.18 0.17 0.12 0.08 0.08 0.07 0.07 0.05 0.05 0.04 0.03 0.04 0.06 0.03 0.01 0.00 0.01 0.01 0.00 0.00 0.00 0.00 0.00 0.00 0.00 0.00 0.00 0.00 0.00 0.00
0.17 0.18 0.17 0.16 0.16 0.16 0.15 0.15 0.14 0.14 0.12 0.11 0.11 0.11 0.10 0.09 0.06 0.05 0.04 0.03 0.03 0.03 0.03 0.02 0.04 0.09 0.04 0.02 0.01 0.01 0.00 0.00 0.00 0.00 0.00 0.00 0.00 0.00 0.00 0.00 0.00 0.00 0.00
0.11 0.12 0.13 0.12 0.10 0.10 0.09 0.09 0.08 0.08 0.06 0.05 0.04 0.03 0.03 0.04 0.03 0.02 0.01 0.01 0.01 0.00 0.01 0.03 0.06 0.09 0.06 0.04 0.01 0.00 0.00 0.00 0.00 0.00 0.00 0.00 0.00 0.00 0.00 0.00 0.00 0.00 0.00
0.07 0.07 0.08 0.08 0.08 0.07 0.06 0.09 0.09 0.07 0.07 0.06 0.03 0.02 0.02 0.01 0.01 0.02 0.01 0.01 0.01 0.00 0.02 0.02 0.02 0.04 0.03 0.02 0.01 0.00 0.00 0.00 0.00 0.00 0.00 0.00 0.00 0.00 0.00 0.00 0.00 0.00 0.00
0.04 0.04 0.04 0.04 0.04 0.04 0.04 0.04 0.06 0.09 0.07 0.06 0.05 0.03 0.01 0.01 0.02 0.04 0.03 0.04 0.03 0.04 0.03 0.02 0.02 0.02 0.01 0.00 0.00 0.00 0.00 0.00 0.00 0.00 0.00 0.00 0.00 0.00 0.00 0.00 0.00 0.00 0.00
0.03 0.03 0.04 0.03 0.03 0.03 0.02 0.02 0.02 0.03 0.06 0.07 0.06 0.06 0.04 0.03 0.03 0.05 0.05 0.07 0.09 0.06 0.05 0.01 0.00 0.00 0.00 0.00 0.00 0.00 0.00 0.00 0.00 0.00 0.00 0.00 0.00 0.00 0.00 0.00 0.00 0.00 0.00
0.02 0.02 0.03 0.02 0.02 0.02 0.02 0.02 0.01 0.02 0.02 0.03 0.03 0.05 0.07 0.06 0.05 0.05 0.06 0.07 0.05 0.02 0.02 0.00 0.00 0.00 0.00 0.00 0.00 0.00 0.00 0.00 0.00 0.00 0.00 0.00 0.00 0.00 0.00 0.00 0.00 0.00 0.01
0.01 0.01 0.01 0.01 0.01 0.01 0.01 0.01 0.00 0.01 0.01 0.01 0.01 0.01 0.01 0.03 0.08 0.10 0.07 0.04 0.03 0.00 0.00 0.00 0.00 0.00 0.00 0.00 0.00 0.00 0.00 0.00 0.00 0.00 0.00 0.00 0.00 0.00 0.00 0.00 0.00 0.01 0.00
0.00 0.00 0.01 0.01 0.00 0.00 0.00 0.00 0.00 0.00 0.00 0.00 0.00 0.00 0.00 0.00 0.00 0.01 0.04 0.06 0.03 0.01 0.00 0.00 0.00 0.00 0.00 0.00 0.00 0.00 0.00 0.00 0.00 0.00 0.00 0.00 0.00 0.01 0.00 0.00 0.01 0.01 0.01
0.00 0.00 0.00 0.02 0.00 0.00 0.00 0.00 0.00 0.00 0.00 0.00 0.00 0.00 0.00 0.01 0.01 0.00 0.00 0.01 0.01 0.01 0.01 0.01 0.00 0.00 0.00 0.00 0.00 0.00 0.00 0.00 0.00 0.00 0.00 0.00 0.00 0.01 0.01 0.02 0.02 0.02 0.02
0.00 0.00 0.00 0.01 0.02 0.00 0.01 0.01 0.00 0.00 0.00 0.00 0.00 0.00 0.00 0.00 0.00 0.00 0.00 0.00 0.00 0.00 0.00 0.00 0.01 0.01 0.00 0.00 0.00 0.00 0.00 0.00 0.00 0.00 0.00 0.00 0.01 0.01 0.02 0.03 0.02 0.02 0.02
0.00 0.00 0.00 0.01 0.01 0.02 0.02 0.01 0.01 0.01 0.00 0.00 0.00 0.00 0.00 0.00 0.00 0.00 0.00 0.00 0.00 0.00 0.00 0.00 0.00 0.00 0.00 0.00 0.00 0.00 0.00 0.00 0.00 0.00 0.00 0.01 0.01 0.01 0.01 0.02 0.01 0.01 0.01
0.02 0.02 0.01 0.01 0.01 0.02 0.02 0.02 0.01 0.01 0.01 0.00 0.00 0.00 0.00 0.00 0.00 0.00 0.00 0.00 0.00 0.00 0.00 0.00 0.00 0.00 0.00 0.00 0.00 0.00 0.00 0.00 0.00 0.00 0.02 0.01 0.01 0.00 0.00 0.01 0.01 0.01 0.01
0.01 0.01 0.02 0.03 0.04 0.03 0.05 0.03 0.02 0.01 0.02 0.01 0.00 0.00 0.00 0.00 0.00 0.00 0.00 0.00 0.00 0.00 0.00 0.00 0.00 0.00 0.00 0.00 0.00 0.00 0.00 0.00 0.01 0.02 0.04 0.09 0.04 0.03 0.03 0.03 0.02 0.02 0.02